Weather History for KGLW - May, 2013

Change the Weather History Date:

Saturday, May 18, 2013

  Actual Average Record
Temperature  
Mean Temperature 70 °F -  
Max Temperature 77 °F 79 °F 93 °F (1962)
Min Temperature 64 °F 54 °F 38 °F (1973)
Cooling Degree Days 6    
Growing Degree Days 20 (Base 50)    
Moisture  
Dew Point 66 °F    
Average Humidity 85    
Maximum Humidity 100    
Minimum Humidity 65    
Precipitation  
Precipitation 0.51 in - - ()
Sea Level Pressure  
Sea Level Pressure 30.00 in    
Wind  
Wind Speed 2 mph (South)    
Max Wind Speed 9 mph    
Max Gust Speed -    
Visibility 8 miles    
Events Rain    
Averages and records for this station are not official NWS values.
T = Trace of Precipitation, MM = Missing Value Source: NWS Daily Summary

Daily Weather History Graph

Daily Weather History Graph

Search for Another Location

Airport or City:

Trip Planner

Search our weather history database for the weather conditions in past years. The results will help you decide how hot, cold, wet, or windy it might be!

Date:

Astronomy

May. 18, 2013 Rise Set
Actual Time 5:33 AM CDT 7:47 PM CDT
Civil Twilight 5:03 AM CDT 8:17 PM CDT
Nautical Twilight 4:28 AM CDT 8:53 PM CDT
Astronomical Twilight 3:48 AM CDT 9:32 PM CDT
Moon 1:00 PM CDT (5/18) 1:15 AM CDT (5/18)
Length of Visible Light 15h 13m
Length of Day
14h 14m
First Quarter, 55% of the Moon is Illuminated
May 18
First Quarter
May 24
Full
May 31
Last Quarter
Jun 8
New
Jun 16
First Quarter

Hourly Weather History & Observations

Time (CDT) Temp. Dew Point Humidity Pressure Visibility Wind Dir Wind Speed Gust Speed Precip Events Conditions
12:15 AM 65.3 °F 65.3 °F 100% 30.03 in 7.0 mi South 3.5 mph - N/A   Heavy Drizzle
12:35 AM 64.9 °F 64.9 °F 100% 30.02 in 4.0 mi Calm Calm - N/A   Heavy Drizzle
12:55 AM 64.6 °F 64.6 °F 100% 30.02 in 5.0 mi Calm Calm - 0.01 in Rain Light Rain
1:15 AM 64.6 °F 64.6 °F 100% 30.01 in 4.0 mi Calm Calm - 0.02 in Rain Rain
1:35 AM 64.6 °F 64.6 °F 100% 30.01 in 2.0 mi Calm Calm - 0.12 in Rain Heavy Rain
1:55 AM 64.6 °F 64.6 °F 100% 30.01 in 2.5 mi SE 5.8 mph - 0.21 in Rain Heavy Rain
2:15 AM - - N/A% 30.00 in 2.5 mi SE 9.2 mph - 0.16 in Rain Heavy Rain
2:35 AM - - N/A% 30.00 in 4.0 mi SE 9.2 mph - 0.25 in Rain Heavy Rain
2:55 AM - - N/A% 29.99 in 5.0 mi SE 5.8 mph - 0.28 in Rain Heavy Rain
3:15 AM - - N/A% 29.99 in 7.0 mi SE 4.6 mph - N/A   Heavy Drizzle
3:35 AM - - N/A% 29.99 in 7.0 mi SE 3.5 mph - N/A   Overcast
3:55 AM - - N/A% 29.99 in 10.0 mi SE 3.5 mph - N/A   Overcast
4:15 AM - - N/A% 29.99 in 5.0 mi SE 3.5 mph - N/A   Drizzle
4:35 AM - - N/A% 29.99 in 10.0 mi Calm Calm - N/A   Overcast
4:55 AM - - N/A% 29.99 in 10.0 mi Calm Calm - N/A   Overcast
5:15 AM - - N/A% 29.99 in 7.0 mi Calm Calm - N/A   Overcast
5:35 AM - - N/A% 30.00 in 7.0 mi Calm Calm - N/A   Overcast
5:55 AM - - N/A% 30.00 in 5.0 mi Calm Calm - N/A   Haze
6:15 AM - - N/A% 30.01 in 5.0 mi Calm Calm - N/A   Haze
6:35 AM - - N/A% 30.01 in 5.0 mi Calm Calm - N/A   Haze
6:55 AM - - N/A% 30.01 in 5.0 mi Calm Calm - 0.01 in   Haze
7:15 AM - - N/A% 30.02 in 5.0 mi East 3.5 mph - N/A   Haze
7:35 AM - - N/A% 30.02 in 7.0 mi SE 3.5 mph - N/A   Overcast
7:55 AM 66.2 °F 66.2 °F 100% 30.02 in 10.0 mi SE 3.5 mph - N/A   Overcast
8:15 AM 66.6 °F 66.6 °F 100% 30.02 in 10.0 mi SSE 3.5 mph - N/A   Overcast
8:35 AM 66.7 °F 66.7 °F 100% 30.03 in 10.0 mi Calm Calm - N/A   Overcast
8:55 AM 67.1 °F 67.1 °F 100% 30.03 in 10.0 mi Calm Calm - N/A   Overcast
9:15 AM 67.8 °F 67.8 °F 100% 30.03 in 10.0 mi Calm Calm - N/A   Overcast
9:35 AM 68.4 °F 67.1 °F 96% 30.02 in 10.0 mi SSW 3.5 mph - N/A   Overcast
9:55 AM 69.3 °F 66.6 °F 91% 30.02 in 10.0 mi SSW 3.5 mph - N/A   Overcast
10:15 AM 69.6 °F 65.8 °F 88% 30.02 in 7.0 mi SSW 4.6 mph - N/A   Overcast
10:35 AM 68.9 °F 66.7 °F 93% 30.02 in 4.0 mi SW 4.6 mph - N/A Rain Heavy Rain
10:55 AM 68.0 °F 68.0 °F 100% 30.02 in 4.0 mi SSW 3.5 mph - N/A Rain Rain
11:15 AM 69.3 °F 68.0 °F 96% 30.02 in 7.0 mi Calm Calm - N/A   Overcast
11:35 AM 71.1 °F 65.7 °F 83% 30.02 in 10.0 mi Calm Calm - N/A   Overcast
11:55 AM 72.5 °F 65.3 °F 78% 30.02 in 10.0 mi WSW 3.5 mph - N/A   Overcast
12:15 PM 73.9 °F 64.6 °F 72% 30.01 in 10.0 mi Calm Calm - N/A   Overcast
12:35 PM 73.6 °F 64.8 °F 74% 30.01 in 10.0 mi Calm Calm - N/A Rain Rain
12:55 PM 72.9 °F 64.8 °F 76% 30.01 in 10.0 mi Calm Calm - N/A   Overcast
1:15 PM 74.3 °F 64.4 °F 71% 30.00 in 10.0 mi Calm Calm - N/A   Overcast
1:35 PM 75.0 °F 64.6 °F 70% 30.00 in 10.0 mi Calm Calm - N/A   Overcast
2:15 PM 75.6 °F 65.3 °F 70% 29.99 in 10.0 mi Calm Calm - N/A   Overcast
2:35 PM 75.2 °F 65.5 °F 72% 29.99 in 10.0 mi South 3.5 mph - N/A   Overcast
2:55 PM 75.4 °F 65.7 °F 72% 29.98 in 10.0 mi South 4.6 mph - N/A   Overcast
3:15 PM 75.7 °F 65.3 °F 70% 29.98 in 10.0 mi South 6.9 mph - N/A   Overcast
3:35 PM 75.7 °F 65.8 °F 71% 29.98 in 10.0 mi SW 3.5 mph - N/A   Overcast
3:55 PM 75.9 °F 65.5 °F 70% 29.98 in 10.0 mi WSW 3.5 mph - N/A   Overcast
4:15 PM 76.1 °F 65.1 °F 69% 29.97 in 10.0 mi Calm Calm - N/A   Overcast
4:35 PM 76.1 °F 64.9 °F 68% 29.97 in 10.0 mi Calm Calm - N/A   Overcast
4:55 PM 75.7 °F 65.1 °F 69% 29.97 in 10.0 mi SSW 3.5 mph - N/A   Overcast
5:15 PM 76.5 °F 66.2 °F 70% 29.97 in 10.0 mi SW 3.5 mph - N/A   Overcast
5:35 PM 77.2 °F 65.1 °F 66% 29.97 in 10.0 mi Calm Calm - N/A   Overcast
5:55 PM 77.4 °F 65.1 °F 66% 29.97 in 10.0 mi SW 5.8 mph - N/A   Mostly Cloudy
6:15 PM 77.0 °F 64.4 °F 65% 29.97 in 10.0 mi Calm Calm - N/A   Mostly Cloudy
6:35 PM 76.8 °F 64.6 °F 66% 29.97 in 10.0 mi Calm Calm - N/A   Scattered Clouds
6:55 PM 76.5 °F 64.4 °F 66% 29.97 in 10.0 mi WSW 3.5 mph - N/A   Clear
7:15 PM 75.0 °F 64.4 °F 69% 29.98 in 10.0 mi Calm Calm - N/A   Scattered Clouds
7:35 PM 73.6 °F 64.2 °F 72% 29.98 in 10.0 mi Calm Calm - N/A   Clear
7:55 PM 71.6 °F 64.4 °F 78% 29.98 in 10.0 mi Calm Calm - N/A   Clear
8:15 PM 69.8 °F 64.6 °F 83% 29.98 in 10.0 mi Calm Calm - N/A   Clear
8:35 PM 69.1 °F 65.5 °F 88% 29.99 in 10.0 mi Calm Calm - N/A   Clear
8:55 PM 67.8 °F 67.6 °F 99% 29.98 in 10.0 mi Calm Calm - N/A   Clear
9:15 PM 67.3 °F 67.3 °F 100% 29.99 in 10.0 mi Calm Calm - N/A   Clear
9:35 PM 66.7 °F 66.7 °F 100% 29.99 in 10.0 mi Calm Calm - N/A   Clear
9:55 PM 66.0 °F 66.0 °F 100% 29.99 in 7.0 mi Calm Calm - N/A   Clear
10:15 PM 65.8 °F 65.8 °F 100% 29.99 in 7.0 mi Calm Calm - N/A   Clear
10:35 PM 65.3 °F 65.3 °F 100% 29.99 in 5.0 mi Calm Calm - N/A   Mostly Cloudy
10:55 PM 65.3 °F 65.3 °F 100% 29.99 in 4.0 mi Calm Calm - N/A   Scattered Clouds
11:15 PM 65.5 °F 65.5 °F 100% 29.99 in 3.0 mi Calm Calm - N/A   Clear
11:35 PM - - N/A% 29.98 in 3.0 mi Calm Calm - N/A   Clear
11:55 PM - - N/A% 29.98 in 3.0 mi Calm Calm - N/A   Clear